sat.trackr.live / text

‹ back to catalog

STARLINK-5803

NORAD 56008 · 2023-042Y

PAYLOAD ACTIVE UNKNOWN

§ Identity

Operator
Country
US
Launch date
2023-03-24
Launch site
AFETR
Launch vehicle
Mass (kg)
RCS (m²)

Purposes: comms

External: N2YO · Heavens-Above · Gunter

§ Orbital elements

Epoch: 2026-05-24T22:42:58.986720Z

Period
94.27 min
Inclination
43.0052°
Eccentricity
0.0001445
Mean motion
15.27576331 rev/d
Perigee alt
482.1 km
Apogee alt
484.1 km
Semi-major
6,861.2 km
B*
-7.9911e-6
RAAN
348.7897°
Arg perigee
265.7219°
Mean anomaly
94.3468°
Rev number
17,452

§ Raw data

STARLINK-58031 56008U 23042Y   26144.94651605 -.00000482  00000+0 -79911-5 0  99902 56008  43.0052 348.7897 0001445 265.7219  94.3468 15.27576331174520

JSON: /api/v1/satellites/56008 · /tle

For live sub-satellite position, see the globe view (requires WebGL).

§ Visibility from observer

Set your observer location to see the next 7 days of passes ≥ 10°. The values pass through the URL so the page stays shareable.

No JS? Fill the form by hand. The geolocation button needs JavaScript.